Regional Weather Roundup
Issued by NWS

Home | Current Version | Previous Version | Text Only | Print | Product List | Glossary Off
Versions: 1 2 3 4 5 6 7 8 9 10 11 12 13 14 15 16 17 18 19 20 21 22 23 24 25 26 27 28 29 30 31 32 33 34 35 36 37 38 39 40 41 42 43 44 45 46 47 48 49 50

000
ASUS45 KTFX 240910
RWRMT
MONTANA REGIONAL WEATHER ROUNDUP
NATIONAL WEATHER SERVICE GREAT FALLS MT
300 AM MDT SUN MAY 24 2015

NOTE: "FAIR" INDICATES FEW OR NO CLOUDS BELOW 12000 FEET WITH NO
SIGNIFICANT WEATHER AND/OR OBSTRUCTIONS TO VISIBILITY.

MTZ001>007-043-241000-
WEST OF THE DIVIDE

CITY           SKY/WX    TMP DP  RH WIND       PRES   REMARKS
KALISPELL      SUNNY     41  38  89 W6        30.06F
MISSOULA       CLOUDY    51  44  77 N7        30.08F
BUTTE          CLOUDY    46  42  86 N5        30.11S
MULLAN PASS    PTCLDY    45  34  65 VRB3      30.13S
DEER LODGE       N/A     48  43  81 NW6       30.14S
EUREKA           N/A     46  36  66 CALM      30.07S
HAMILTON         N/A     54  43  66 N2        30.06S
LIBBY            N/A     46  37  71 CALM      30.06F
RONAN            N/A     43  38  82 CALM      30.10S
THOMPSON FALLS   N/A     46  38  74 CALM      30.09F
$$

MTZ008-052>055-241000-
SOUTHWEST MONTANA

CITY           SKY/WX    TMP DP  RH WIND       PRES   REMARKS
BOZEMAN        CLOUDY    48  45  89 CALM      30.08R
DILLON         MOCLDY    46  42  86 SE3       30.06F
W YELLOWSTONE  PTCLDY    32  32 100 S3        30.06S
THREE FORKS      N/A     49  27  42 CALM      30.06S
$$

MTZ009-010-012-014-046-048-049-054-241000-
EAST SLOPES AND CENTRAL MONTANA

CITY           SKY/WX    TMP DP  RH WIND       PRES   REMARKS
CUT BANK       CLOUDY    45  42  89 NW3       30.13S
GREAT FALLS    MOCLDY    44  43  96 SW5       30.10S
MALMSTROM AFB  FOG       45  43  93 CALM      30.10S VSB 1/2
HELENA         MOCLDY    51  44  77 SW9       30.08F
CONRAD           N/A     47  47 100 CALM      30.13F
$$

MTZ011-013-016-021-045-047-050-051-241000-
NORTH CENTRAL MONTANA

CITY           SKY/WX    TMP DP  RH WIND       PRES   REMARKS
HAVRE          CLEAR     46  42  86 CALM      30.11S
LEWISTOWN      PTCLDY    40  37  89 SE5       30.10F
N BAR RANCH    CLOUDY    46  45  93 CALM      30.11F
CHINOOK          N/A     45  43  93 CALM      30.11S
FORT BENTON      N/A     50  48  93 CALM      30.11S
$$

MTZ017>020-022>027-061-062-241000-
NORTHEAST MONTANA

CITY           SKY/WX    TMP DP  RH WIND       PRES   REMARKS
GLASGOW        CLEAR     46  39  76 NE6       30.08F
JORDAN           N/A     51  46  83 N5        30.07F
SIDNEY         MOCLDY    54  45  71 CALM      30.09S
WOLF POINT     PTCLDY    44  40  85 CALM      30.09F
MALTA            N/A     42  36  79 CALM      30.06S
PLENTYWOOD       N/A     54  37  54 N5        30.09F
POPLAR           N/A     45  43  93 CALM      30.09F
SCOBEY           N/A     39  29  68 E2        30.08F
$$

MTZ028>42-056>058-241000-
SOUTHCENTRAL AND SOUTHEAST MONTANA

CITY           SKY/WX    TMP DP  RH WIND       PRES   REMARKS
BAKER          PTCLDY    46  45  96 E3        30.07S
BILLINGS       CLOUDY    49  44  83 N9        30.06S
LIVINGSTON     CLOUDY    49  46  90 E6        30.06F
MILES CITY     CLOUDY    52  50  93 NE12      30.05S
BIG TIMBER       N/A     48  46  93 N3        30.08F
EKALAKA          N/A     47  44  89 E6        30.03S
FORSYTH          N/A     52  52 100 NE3       30.04F
LAUREL           N/A     50  42  73 N6        30.04S
ROUNDUP          N/A     49  43  80 CALM      29.98F
$$

REGIONAL REPORTS...DAKOTAS

CITY           SKY/WX    TMP DP  RH WIND       PRES   REMARKS
WILLISTON      PTCLDY    45  40  82 N5        30.09F
MINOT          PTCLDY    51  45  79 SW5       30.09S
DICKINSON      MOCLDY    46  44  93 NE5       30.07S FOG
BEACH          FAIR      41  41 100 N5        30.09S FOG
CROSBY         FAIR      48  48 100 CALM      30.09F
WATFORD CITY   FAIR      45  41  87 CALM      30.07F
BISMARCK       CLOUDY    56  52  86 CALM      30.09S
GRAND FORKS    CLEAR     47  44  90 CALM      30.10R
FARGO          PTCLDY    50  47  89 E5        30.08F
BUFFALO SD       N/A     50  48  93 NE7       29.98S
RAPID CITY     LGT RAIN  53  52  96 E7        29.99S FOG
$$

REGIONAL REPORTS...WYOMING/IDAHO/WASHINGTON

CITY           SKY/WX    TMP DP  RH WIND       PRES   REMARKS
GILLETTE       LGT RAIN  50  48  93 N8        29.98F
SHERIDAN       CLOUDY    49  47  93 N6        30.03S
BUFFALO WY     CLOUDY    47  46  97 NW15      30.02F FOG
CODY           CLOUDY    46  39  76 NW12      30.04S
YELLOWSTONE LA   N/A     36  32  85 VRB3      30.08F
IDAHO FALLS    CLOUDY    44  43  96 NW3       29.99R
SALMON         MOCLDY    48  46  93 CALM      30.03S
BOISE          MOCLDY    59  50  72 E10       29.95S
SPOKANE        PTCLDY    62  51  67 SE5       30.01R
$$

REGIONAL REPORTS...ALBERTA

CITY           SKY/WX    TMP DP  RH WIND       PRES   REMARKS
EDMONTON       CLEAR     52  37  58 NE5       30.04F
CALGARY        CLEAR     50  34  53 VRB3      30.10F
LETHBRIDGE     CLEAR     41  37  87 W3        30.11F
MEDICINE HAT   CLEAR     45  37  76 S6        30.12R
$$

REGIONAL REPORTS...SASKATCHEWAN

CITY           SKY/WX    TMP DP  RH WIND       PRES   REMARKS
SWIFT CURRENT  CLEAR     46  32  57 SW12      30.11S
REGINA         CLEAR     46  34  61 S8        30.10R
SASKATOON      CLEAR     50  37  62 W3        30.08S
$$



USA.gov is the U.S. government's official web portal to all federal, state and local government web resources and services.